TimeCDT,TemperatureF,Dew PointF,Humidity,Sea Level PressureIn,VisibilityMPH,Wind Direction,Wind SpeedMPH,Gust SpeedMPH,PrecipitationIn,Events,Conditions,WindDirDegrees,DateUTC
12:53 AM,46.0,39.9,79,30.01,10.0,WSW,5.8,-,N/A,,Clear,240,2012-10-15 05:53:00
1:53 AM,46.0,37.9,73,30.00,10.0,West,6.9,-,N/A,,Clear,260,2012-10-15 06:53:00
2:53 AM,45.0,37.9,76,30.00,10.0,West,6.9,-,N/A,,Clear,270,2012-10-15 07:53:00
3:53 AM,44.1,37.0,76,29.98,10.0,WSW,6.9,-,N/A,,Clear,250,2012-10-15 08:53:00
4:53 AM,45.0,37.0,74,29.97,10.0,SW,4.6,-,N/A,,Clear,230,2012-10-15 09:53:00
5:53 AM,45.0,37.0,74,29.96,10.0,WSW,3.5,-,N/A,,Clear,240,2012-10-15 10:53:00
6:53 AM,44.1,36.0,73,29.96,10.0,Calm,Calm,-,N/A,,Clear,0,2012-10-15 11:53:00
7:53 AM,44.1,36.0,73,29.97,10.0,WSW,4.6,-,N/A,,Clear,250,2012-10-15 12:53:00
8:53 AM,50.0,39.9,68,29.97,10.0,Calm,Calm,-,N/A,,Clear,0,2012-10-15 13:53:00
9:53 AM,55.9,39.0,53,29.97,10.0,Calm,Calm,-,N/A,,Clear,0,2012-10-15 14:53:00
10:53 AM,63.0,39.9,43,29.96,10.0,Calm,Calm,-,N/A,,Clear,0,2012-10-15 15:53:00
11:53 AM,71.1,39.0,31,29.93,10.0,SSW,6.9,-,N/A,,Clear,210,2012-10-15 16:53:00
12:53 PM,73.9,37.0,26,29.91,10.0,South,8.1,-,N/A,,Clear,190,2012-10-15 17:53:00
1:53 PM,77.0,37.0,24,29.86,10.0,SSW,11.5,-,N/A,,Clear,210,2012-10-15 18:53:00
2:53 PM,79.0,37.9,23,29.83,10.0,SSW,11.5,-,N/A,,Clear,200,2012-10-15 19:53:00
3:53 PM,81.0,37.9,21,29.79,10.0,SSW,10.4,-,N/A,,Clear,200,2012-10-15 20:53:00
4:53 PM,82.0,36.0,19,29.77,10.0,WSW,13.8,26.5,N/A,,Clear,240,2012-10-15 21:53:00
5:53 PM,81.0,37.9,21,29.76,10.0,SW,12.7,-,N/A,,Clear,230,2012-10-15 22:53:00
6:53 PM,71.1,41.0,34,29.76,10.0,South,9.2,-,N/A,,Clear,190,2012-10-15 23:53:00
7:53 PM,64.0,43.0,46,29.76,10.0,South,10.4,-,N/A,,Clear,170,2012-10-16 00:53:00
8:53 PM,63.0,44.1,50,29.75,10.0,South,9.2,-,N/A,,Clear,170,2012-10-16 01:53:00
9:53 PM,63.0,45.0,52,29.74,10.0,South,12.7,-,N/A,,Clear,170,2012-10-16 02:53:00
10:53 PM,64.0,45.0,50,29.71,10.0,South,13.8,-,N/A,,Clear,180,2012-10-16 03:53:00
11:53 PM,64.0,46.0,52,29.69,10.0,South,15.0,-,N/A,,Clear,180,2012-10-16 04:53:00